Вернуться в каталог

HORYU 2

АктивенНаукаSSO
NORAD 38340·PAYLOAD·🇯🇵 Japan

Запущен May 17, 2012 с Tanegashima Space Center

Loading…

Ближайшие Пролёты (ближайшие 24 часа)

TLE

СвежийSource: Space-Track

Эпоха: Sep 14, 2026, 08:14 UTC

1 38340U 12025D   26257.34317542  .00002606  00000-0  26634-3 0  9997
2 38340  98.2304  34.0180 0006796 246.3973 113.6531 14.91515345762018

Отслеживайте HORYU 2 в реальном времени с AllMySat

Download on the App Store